Miscellaneous Local Product
Issued by NWS North Platte, NE

Home | Current Version | Previous Version | Text Only | Print | Product List | Glossary On
Versions: 1 2 3 4 5 6 7 8 9 10 11 12 13 14 15 16 17 18 19 20 21 22 23 24 25 26 27 28 29 30 31 32 33 34 35 36 37 38 39 40 41 42 43 44 45 46 47 48 49 50
000
AXUS43 KLBF 180110
MISLBF


WESTERN AND NORTH CENTRAL NEBRASKA HOURLY WEATHER ROUNDUP
NATIONAL WEATHER SERVICE NORTH PLATTE NE
800 PM CDT THU APR 17 2014

***STATIONS NOT REPORTING VARIABLES SUCH AS SKY/WEATHER OR
PRESSURE ARE PROVIDED BY THE NEBRASKA DEPARTMENT OF
ROADS...RAWS...AND APRS NETWORKS...AND ARE NOT UNDER
NATIONAL WEATHER SERVICE QUALITY CONTROL***

...OBSERVATIONS IN AND NEAR THE EASTERN PANHANDLE OF NEBRASKA...

CITY           SKY/WX    TMP DP  RH WIND       PRES   REMARKS
PINE RIDGE     CLEAR     48  35  60 S8        30.00F
CHADRON        CLEAR     52  37  56 SE16      29.98S
ALLIANCE       CLEAR     52  35  52 SE14      29.99F
SIDNEY         CLEAR     59  32  36 SE16      29.99F
WHITECLAY        N/A     45  32  60 S15         N/A
CRESCENT LAKE    N/A     53  37  54 SE10G20     N/A
LISCO            N/A     58  34  41 E16         N/A
BIG SPRINGS      N/A     57  40  54 S16         N/A
LEWELLEN         N/A     53  31  41 SE16        N/A
$$

...OBSERVATIONS IN SOUTHWEST NEBRASKA AND FAR NORTHEAST COLORADO...

CITY           SKY/WX    TMP DP  RH WIND       PRES   REMARKS
WRAY           FAIR      56  38  52 S16       30.05F
HOLYOKE        FAIR      59  39  47 S23       30.03F
IMPERIAL       CLEAR     53  36  52 S21       30.08F
OGALLALA       CLEAR     54  36  49 S13G20    30.06F
NORTH PLATTE   CLEAR     51  30  44 S13       30.11F
MCCOOK         MOCLDY    54  33  45 SE12      30.14F
LEXINGTON      PTCLDY    50  34  54 S9        30.17F
PAXTON           N/A     54  38  53 SE16        N/A
SUTHERLAND       N/A     47  33  56 S10         N/A
MEDICINE CREEK   N/A     54  38  55 CALM        N/A
GOTHENBURG       N/A     51  35  54 SE5         N/A
CALLAWAY         N/A     52  35  52 S17         N/A
$$

...OBSERVATIONS IN NORTH CENTRAL NEBRASKA...

CITY           SKY/WX    TMP DP  RH WIND       PRES   REMARKS
VALENTINE      PTCLDY    53  27  36 S10       30.09F
THEDFORD       MOCLDY    53  33  45 S12       30.11F
AINSWORTH      CLEAR     50  26  40 SE9       30.12S
O`NEILL        PTCLDY    49  19  30 S9        30.18S
ORD            CLEAR     50  25  37 SE9       30.17F
BROKEN BOW     CLEAR     48  29  47 S12       30.16S
BROWNLEE         N/A     55  26  32 S15         N/A
SPRINGVIEW       N/A     51  26  38 SE7         N/A
DUNNING          N/A     49  28  43 S8          N/A
BREWSTER         N/A     49  27  41 S10         N/A
ROSE             N/A     50  30  46 E9          N/A
NEWPORT          N/A     47  26  42 SE9         N/A
COMSTOCK         N/A     49  28  44 S6          N/A
CHAMBERS         N/A     51  25  36 E3          N/A
EWING            N/A     49  22  34 S3          N/A
$$

...SOME WEATHER OBSERVATIONS FROM AROUND THE REGION...

CITY           SKY/WX    TMP DP  RH WIND       PRES   REMARKS
DENVER         PTCLDY    58  33  39 S15       29.98S
LARAMIE        CLEAR     49  20  31 SW10      30.01S
CHEYENNE       CLEAR     54  22  28 S12       29.99S
SCOTTSBLUFF    CLEAR     57  34  41 SE18      29.96F
RAPID CITY     CLEAR     51  36  56 SE15      29.96F
PIERRE         CLEAR     42  25  50 SE15      30.11F
WINNER         FAIR      45  25  45 E16       30.13
SIOUX FALLS    MOCLDY    41  24  51 NE9       30.25F
OMAHA          PTCLDY    53  24  32 CALM      30.24S
GRAND ISLAND   CLEAR     51  26  37 S6        30.21S
KANSAS CITY    PTCLDY    47  32  56 SE3       30.27S
WICHITA        PTCLDY    48  36  63 E6        30.24R
HAYS           CLEAR     54  30  40 SE6       30.21S
LIBERAL        PTCLDY    48  37  66 SE7       30.24R
GOODLAND       CLEAR     51  38  60 S18       30.13F
$$



USA.gov is the U.S. government's official web portal to all federal, state and local government web resources and services.